COSMOS 2491 DEB, 45172

Orbit data source: Space-Track

COSMOS 2491 DEB, 45172 is space debris in LEO originally from a launch on Wed, 25 Dec 2013 UTC launched from the Plesetsk Missile And Space Complex (PKMTR). Debris objects in space refer to the collection of defunct objects orbiting the Earth. Examples of debris include non-operational satellites, rocket bodies, and fragments generated from explosions, collisions, or faulty payload assembly.

Loading next visibility...
COSMOS 2491 DEB details
Identifier
45172, 2013-076AD
Orbit
LEO
Last TLE update21 hours ago
Origin
Flag of CISTsNIIKhM (CIS)
ManufacturerTsNIIKhM
MissionSpacecraft
Bus & MotorUnknown
MassUnknown
Launch date (UTC)
2013-12-25 (11 years ago)
Launch vehicleUnknown
Launch site
Plesetsk Missile And Space Complex (PKMTR)
Object type
Payload
Rocket body
Debris
Shape & HBRUnknown
Radar Cross SectionSmall (<0.1 m²)

Expand to show TLE details & history

TLE from 21 hours ago
0 COSMOS 2491 DEB
1 45172U 13076AD  24360.58377714  .00005261  00000-0  27163-1 0  9997
2 45172  82.4526 102.7875 0131414 282.2808  76.3597 12.65563139226066
Epoch: 2024-12-25T14:00Z
Definitive object data (Epoch: 2024-12-25T14:00:38.344Z)
Latitude-0.00003°
Longitude158.0523°
Altitude1,379.963 km
Speed7.18 km/s
True Right ascension06h 51m 08s
True Declination0° 00' 00"
Sunlit
Object was in full shadow at TLE epoch
Visualization TLE readout
Latitude-22.03632°
Longitude154.4289°
Altitude1,352.516 km
Speed7.207 km/s
Apparent Right ascension03h 45m 12s
Apparent Declination-50° 33' 13"
Sunlit
Object is in full shadow
Visualization observer readout
Local Sidereal Time10:07:10
Azimuth228.82° WSW
Elevation-32.829°
Doppler factor1
Orbital elements
Apogee altitude1,499.568 km
Perigee altitude1,295.205 km
Semi-major axis7,775.524 km
Eccentricity0.0131414
Inclination82.4526°
RAAN102.7875°
Arg. of periapsis282.2808°
True anomaly77.82865°
Mean anomaly76.3597°
Eccentric anomaly77.09362°
Mean motion3.16555 °/min
BSTAR0.027163
Orbital period113.72 mins
Loading maneuver chart data...
Loading historical data...
Loading historical data...
Loading historical data...
Loading historical data...
Loading historical data...
Loading historical data...
Loading historical data...

COSMOS 2491 DEB Visibility forecast

Observer location: undefined°, undefined

Span
Click to sort rows by Start time (UTC) header in descending order
Start Az.
Max El. time (UTC)
Max El. Az.
Max El.
End time (UTC)
End Az.
12 mins2024-12-26 17:11:56.501Z21.138° NNE2024-12-26 17:17:56.501Z69.168° E21.317°2024-12-26 17:23:56.501Z114.326° SE
15 mins2024-12-26 19:05:56.501Z348.371° N2024-12-26 19:12:56.501Z284.033° WNW44.15°2024-12-26 19:20:56.501Z182.497° SSW
6 mins2024-12-26 21:03:56.501Z302.506° NW2024-12-26 21:05:56.501Z288.111° WNW13.266°2024-12-26 21:09:56.501Z259.664° W
10 mins2024-12-27 05:59:56.501Z114.476° SE2024-12-27 06:03:56.501Z82.527° E19.216°2024-12-27 06:09:56.501Z37.075° NE
15 mins2024-12-27 07:50:56.501Z192.156° SSW2024-12-27 07:57:56.501Z275.94° WNW44.489°2024-12-27 08:05:56.501Z5.146° NNE
8 mins2024-12-27 09:50:56.501Z274.602° WNW2024-12-27 09:53:56.501Z297.337° NW15.154°2024-12-27 09:58:56.501Z333.48° NNW
|